Time,TemperatureF,DewpointF,PressureIn,WindDirection,WindDirectionDegrees,WindSpeedMPH,WindSpeedGustMPH,Humidity,HourlyPrecipIn,Conditions,Clouds,dailyrainin,SoftwareType,DateUTC
2013-04-17 00:33:00,60.0,-99.9,30.15,WSW,240,3.0,5.0,-999,-99.99,,,-99.99,,2013-04-17 04:33:00,
2013-04-17 00:43:00,60.0,-99.9,30.15,WSW,240,3.0,5.0,-999,-99.99,,,-99.99,,2013-04-17 04:43:00,
2013-04-17 00:52:00,60.0,-99.9,30.15,NW,316,-999.0,4.0,-999,-99.99,,,-99.99,,2013-04-17 04:52:00,
2013-04-17 01:32:00,60.0,-99.9,30.15,NW,316,-999.0,4.0,-999,-99.99,,,-99.99,,2013-04-17 05:32:00,
2013-04-17 01:43:00,60.0,-99.9,30.15,NW,316,-999.0,4.0,-999,-99.99,,,-99.99,,2013-04-17 05:43:00,
2013-04-17 01:52:00,59.0,-99.9,30.16,NW,316,-999.0,-999.0,-999,-99.99,,,-99.99,,2013-04-17 05:52:00,
2013-04-17 02:32:00,59.0,-99.9,30.16,NW,316,-999.0,-999.0,-999,-99.99,,,-99.99,,2013-04-17 06:32:00,
2013-04-17 02:42:00,59.0,-99.9,30.16,NW,316,-999.0,-999.0,-999,-99.99,,,-99.99,,2013-04-17 06:42:00,
2013-04-17 02:52:00,58.0,-99.9,30.15,NW,316,-999.0,-999.0,-999,-99.99,,,-99.99,,2013-04-17 06:52:00,
2013-04-17 03:32:00,58.0,-99.9,30.15,NW,316,-999.0,-999.0,-999,-99.99,,,-99.99,,2013-04-17 07:32:00,
2013-04-17 03:42:00,58.0,-99.9,30.15,NW,316,-999.0,-999.0,-999,-99.99,,,-99.99,,2013-04-17 07:42:00,
2013-04-17 03:52:00,54.0,-99.9,30.16,NE,52,8.0,9.0,-999,-99.99,,,-99.99,,2013-04-17 07:52:00,
2013-04-17 04:22:00,54.0,-99.9,30.16,NE,52,8.0,9.0,-999,-99.99,,,-99.99,,2013-04-17 08:22:00,
2013-04-17 04:33:00,54.0,-99.9,30.16,NE,52,8.0,9.0,-999,-99.99,,,-99.99,,2013-04-17 08:33:00,
2013-04-17 04:42:00,54.0,-99.9,30.16,NE,52,8.0,9.0,-999,-99.99,,,-99.99,,2013-04-17 08:42:00,
2013-04-17 04:52:00,52.0,-99.9,30.18,North,1,-999.0,6.0,-999,-99.99,,,-99.99,,2013-04-17 08:52:00,
2013-04-17 05:22:00,52.0,-99.9,30.18,North,1,-999.0,6.0,-999,-99.99,,,-99.99,,2013-04-17 09:22:00,
2013-04-17 05:33:00,52.0,-99.9,30.18,North,1,-999.0,6.0,-999,-99.99,,,-99.99,,2013-04-17 09:33:00,
2013-04-17 05:43:00,52.0,-99.9,30.18,North,1,-999.0,6.0,-999,-99.99,,,-99.99,,2013-04-17 09:43:00,
2013-04-17 05:52:00,51.0,-99.9,30.19,NNW,346,3.0,7.0,-999,-99.99,,,-99.99,,2013-04-17 09:52:00,
2013-04-17 06:33:00,51.0,-99.9,30.19,NNW,346,3.0,7.0,-999,-99.99,,,-99.99,,2013-04-17 10:33:00,
2013-04-17 06:43:00,51.0,-99.9,30.19,NNW,346,3.0,7.0,-999,-99.99,,,-99.99,,2013-04-17 10:43:00,
2013-04-17 06:52:00,50.0,-99.9,30.23,NNE,23,-999.0,-999.0,-999,-99.99,,,-99.99,,2013-04-17 10:52:00,
2013-04-17 07:32:00,50.0,-99.9,30.23,NNE,23,-999.0,-999.0,-999,-99.99,,,-99.99,,2013-04-17 11:32:00,
2013-04-17 07:42:00,50.0,-99.9,30.23,NNE,23,-999.0,-999.0,-999,-99.99,,,-99.99,,2013-04-17 11:42:00,
2013-04-17 07:52:00,51.0,-99.9,30.27,NNE,17,6.0,9.0,-999,-99.99,,,-99.99,,2013-04-17 11:52:00,
2013-04-17 08:22:00,51.0,-99.9,30.27,NNE,17,6.0,9.0,-999,-99.99,,,-99.99,,2013-04-17 12:22:00,
2013-04-17 08:32:00,51.0,-99.9,30.27,NNE,17,6.0,9.0,-999,-99.99,,,-99.99,,2013-04-17 12:32:00,
2013-04-17 08:42:00,51.0,-99.9,30.27,NNE,17,6.0,9.0,-999,-99.99,,,-99.99,,2013-04-17 12:42:00,
2013-04-17 08:52:00,53.0,-99.9,30.27,North,359,-999.0,7.0,-999,-99.99,,,-99.99,,2013-04-17 12:52:00,
2013-04-17 09:22:00,53.0,-99.9,30.27,North,359,-999.0,7.0,-999,-99.99,,,-99.99,,2013-04-17 13:22:00,
2013-04-17 09:32:00,53.0,-99.9,30.27,North,359,-999.0,7.0,-999,-99.99,,,-99.99,,2013-04-17 13:32:00,
2013-04-17 09:42:00,53.0,-99.9,30.27,North,359,-999.0,7.0,-999,-99.99,,,-99.99,,2013-04-17 13:42:00,
2013-04-17 09:52:00,59.0,-99.9,30.27,East,94,3.0,12.0,-999,-99.99,,,-99.99,,2013-04-17 13:52:00,
2013-04-17 10:32:00,59.0,-99.9,30.27,East,94,3.0,12.0,-999,-99.99,,,-99.99,,2013-04-17 14:32:00,
2013-04-17 10:43:00,59.0,-99.9,30.27,East,94,3.0,12.0,-999,-99.99,,,-99.99,,2013-04-17 14:43:00,
2013-04-17 10:52:00,60.0,-99.9,30.27,NNE,33,7.0,9.0,-999,-99.99,,,-99.99,,2013-04-17 14:52:00,
2013-04-17 11:22:00,60.0,-99.9,30.27,NNE,33,7.0,9.0,-999,-99.99,,,-99.99,,2013-04-17 15:22:00,
2013-04-17 11:33:00,60.0,-99.9,30.27,NNE,33,7.0,9.0,-999,-99.99,,,-99.99,,2013-04-17 15:33:00,
2013-04-17 11:43:00,60.0,-99.9,30.27,NNE,33,7.0,9.0,-999,-99.99,,,-99.99,,2013-04-17 15:43:00,
2013-04-17 11:52:00,63.0,-99.9,30.25,NE,44,-999.0,10.0,-999,-99.99,,,-99.99,,2013-04-17 15:52:00,
2013-04-17 12:23:00,63.0,-99.9,30.25,NE,44,-999.0,10.0,-999,-99.99,,,-99.99,,2013-04-17 16:23:00,
2013-04-17 12:32:00,63.0,-99.9,30.25,NE,44,-999.0,10.0,-999,-99.99,,,-99.99,,2013-04-17 16:32:00,
2013-04-17 12:42:00,63.0,-99.9,30.25,NE,44,-999.0,10.0,-999,-99.99,,,-99.99,,2013-04-17 16:42:00,
2013-04-17 12:52:00,64.0,-99.9,30.24,NNE,33,7.0,8.0,-999,-99.99,,,-99.99,,2013-04-17 16:52:00,
2013-04-17 13:23:00,64.0,-99.9,30.24,NNE,33,7.0,8.0,-999,-99.99,,,-99.99,,2013-04-17 17:23:00,
2013-04-17 13:33:00,64.0,-99.9,30.24,NNE,33,7.0,8.0,-999,-99.99,,,-99.99,,2013-04-17 17:33:00,
2013-04-17 13:42:00,64.0,-99.9,30.24,NNE,33,7.0,8.0,-999,-99.99,,,-99.99,,2013-04-17 17:42:00,
2013-04-17 13:52:00,67.0,-99.9,30.23,NE,42,-999.0,8.0,-999,-99.99,,,-99.99,,2013-04-17 17:52:00,
2013-04-17 14:22:00,67.0,-99.9,30.23,NE,42,-999.0,8.0,-999,-99.99,,,-99.99,,2013-04-17 18:22:00,
2013-04-17 14:33:00,67.0,-99.9,30.23,NE,42,-999.0,8.0,-999,-99.99,,,-99.99,,2013-04-17 18:33:00,
2013-04-17 14:42:00,67.0,-99.9,30.23,NE,42,-999.0,8.0,-999,-99.99,,,-99.99,,2013-04-17 18:42:00,
2013-04-17 14:52:00,68.0,-99.9,30.22,NE,43,9.0,9.0,-999,-99.99,,,-99.99,,2013-04-17 18:52:00,
2013-04-17 15:22:00,68.0,-99.9,30.22,NE,43,9.0,9.0,-999,-99.99,,,-99.99,,2013-04-17 19:22:00,
2013-04-17 15:32:00,68.0,-99.9,30.22,NE,43,9.0,9.0,-999,-99.99,,,-99.99,,2013-04-17 19:32:00,
2013-04-17 15:42:00,68.0,-99.9,30.22,NE,43,9.0,9.0,-999,-99.99,,,-99.99,,2013-04-17 19:42:00,
2013-04-17 15:52:00,68.0,-99.9,30.21,South,185,-999.0,4.0,-999,-99.99,,,-99.99,,2013-04-17 19:52:00,
2013-04-17 16:22:00,68.0,-99.9,30.21,South,185,-999.0,4.0,-999,-99.99,,,-99.99,,2013-04-17 20:22:00,
2013-04-17 16:33:00,68.0,-99.9,30.21,South,185,-999.0,4.0,-999,-99.99,,,-99.99,,2013-04-17 20:33:00,
2013-04-17 16:42:00,68.0,-99.9,30.21,South,185,-999.0,4.0,-999,-99.99,,,-99.99,,2013-04-17 20:42:00,
2013-04-17 16:52:00,68.0,-99.9,30.21,NE,56,-999.0,5.0,-999,-99.99,,,-99.99,,2013-04-17 20:52:00,
2013-04-17 17:22:00,68.0,-99.9,30.21,NE,56,-999.0,5.0,-999,-99.99,,,-99.99,,2013-04-17 21:22:00,
2013-04-17 17:33:00,68.0,-99.9,30.21,NE,56,-999.0,5.0,-999,-99.99,,,-99.99,,2013-04-17 21:33:00,
2013-04-17 17:43:00,68.0,-99.9,30.21,NE,56,-999.0,5.0,-999,-99.99,,,-99.99,,2013-04-17 21:43:00,
2013-04-17 17:52:00,67.0,-99.9,30.22,NNE,31,-999.0,5.0,-999,-99.99,,,-99.99,,2013-04-17 21:52:00,
2013-04-17 18:23:00,67.0,-99.9,30.22,NNE,31,-999.0,5.0,-999,-99.99,,,-99.99,,2013-04-17 22:23:00,
2013-04-17 18:33:00,67.0,-99.9,30.22,NNE,31,-999.0,5.0,-999,-99.99,,,-99.99,,2013-04-17 22:33:00,
2013-04-17 18:43:00,67.0,-99.9,30.22,NNE,31,-999.0,5.0,-999,-99.99,,,-99.99,,2013-04-17 22:43:00,
2013-04-17 18:52:00,64.0,-99.9,30.24,ENE,70,-999.0,8.0,-999,-99.99,,,-99.99,,2013-04-17 22:52:00,
2013-04-17 19:22:00,64.0,-99.9,30.24,ENE,70,-999.0,8.0,-999,-99.99,,,-99.99,,2013-04-17 23:22:00,
2013-04-17 19:32:00,64.0,-99.9,30.24,ENE,70,-999.0,8.0,-999,-99.99,,,-99.99,,2013-04-17 23:32:00,
2013-04-17 19:42:00,64.0,-99.9,30.24,ENE,70,-999.0,8.0,-999,-99.99,,,-99.99,,2013-04-17 23:42:00,
2013-04-17 19:52:00,59.0,-99.9,30.25,North,11,-999.0,-999.0,-999,-99.99,,,-99.99,,2013-04-17 23:52:00,
2013-04-17 20:22:00,59.0,-99.9,30.25,North,11,-999.0,-999.0,-999,-99.99,,,-99.99,,2013-04-18 00:22:00,
2013-04-17 20:32:00,59.0,-99.9,30.25,North,11,-999.0,-999.0,-999,-99.99,,,-99.99,,2013-04-18 00:32:00,
2013-04-17 20:43:00,59.0,-99.9,30.25,North,11,-999.0,-999.0,-999,-99.99,,,-99.99,,2013-04-18 00:43:00,
2013-04-17 20:52:00,54.0,-99.9,30.28,North,11,-999.0,-999.0,-999,-99.99,,,-99.99,,2013-04-18 00:52:00,
2013-04-17 21:32:00,54.0,-99.9,30.28,North,11,-999.0,-999.0,-999,-99.99,,,-99.99,,2013-04-18 01:32:00,
2013-04-17 21:42:00,54.0,-99.9,30.28,North,11,-999.0,-999.0,-999,-99.99,,,-99.99,,2013-04-18 01:42:00,
2013-04-17 21:52:00,51.0,-99.9,30.28,North,11,-999.0,-999.0,-999,-99.99,,,-99.99,,2013-04-18 01:52:00,
2013-04-17 22:22:00,51.0,-99.9,30.28,North,11,-999.0,-999.0,-999,-99.99,,,-99.99,,2013-04-18 02:22:00,
2013-04-17 22:32:00,51.0,-99.9,30.28,North,11,-999.0,-999.0,-999,-99.99,,,-99.99,,2013-04-18 02:32:00,
2013-04-17 22:42:00,51.0,-99.9,30.28,North,11,-999.0,-999.0,-999,-99.99,,,-99.99,,2013-04-18 02:42:00,
2013-04-17 22:52:00,49.0,-99.9,30.29,North,10,-999.0,-999.0,-999,-99.99,,,-99.99,,2013-04-18 02:52:00,
2013-04-17 23:22:00,49.0,-99.9,30.29,North,10,-999.0,-999.0,-999,-99.99,,,-99.99,,2013-04-18 03:22:00,
2013-04-17 23:33:00,49.0,-99.9,30.29,North,10,-999.0,-999.0,-999,-99.99,,,-99.99,,2013-04-18 03:33:00,
2013-04-17 23:43:00,49.0,-99.9,30.29,North,10,-999.0,-999.0,-999,-99.99,,,-99.99,,2013-04-18 03:43:00,
2013-04-17 23:52:00,46.0,-99.9,30.31,NNE,19,-999.0,-999.0,-999,-99.99,,,-99.99,,2013-04-18 03:52:00,